Wind_Speed
24 25 25 24 23 24 25 24 23 23 23 24 25 26 26 29 29 16 7 13 6 8 8 13 10 9 9 4 6 4 2 4 4 3 8 0 4 4 6 14 6 8 6 9 30
26 27 28 27 27 28 27 26 26 25 24 24 24 25 26 28 23 12 4 5 11 6 11 12 6 10 3 5 5 5 4 6 6 3 6 5 5 9 5 9 4 9 13 27 29
27 27 28 29 30 31 30 29 28 27 25 25 24 24 24 21 5 6 7 3 11 10 7 4 6 4 5 5 4 5 4 4 10 5 2 6 10 2 11 4 8 20 18 19 23
28 29 28 30 31 32 33 33 31 29 27 25 24 24 22 6 5 1 3 9 7 10 9 4 3 3 3 4 4 4 7 5 6 8 2 4 4 5 13 7 13 25 26 22 20
29 30 31 31 32 33 33 33 32 32 30 26 23 20 9 4 9 14 16 16 9 9 7 6 5 5 4 3 2 4 5 6 6 11 11 3 7 8 13 7 18 19 22 22 20
29 30 33 34 34 35 35 35 33 32 31 28 20 12 2 6 6 9 6 6 9 9 4 7 7 8 4 5 3 4 7 9 7 10 6 7 5 7 4 20 22 22 23 21 21
32 32 34 36 36 37 36 36 36 33 30 27 18 2 3 19 13 13 14 14 11 11 4 12 8 1 1 5 4 3 6 7 8 4 4 5 13 4 12 23 25 23 21 20 19
34 35 37 38 38 39 40 37 34 30 23 17 5 6 7 17 16 26 21 18 21 13 17 17 8 3 3 4 6 3 3 3 5 8 5 8 10 19 18 23 24 23 19 19 19
34 36 39 40 41 43 39 32 21 12 12 7 4 4 9 11 7 10 8 9 16 24 19 11 2 4 5 1 5 6 5 4 10 5 1 3 13 13 16 21 22 21 19 18 16
33 35 37 39 41 44 29 22 9 5 13 3 1 2 8 4 12 21 22 12 7 2 1 6 3 2 3 3 7 5 4 4 4 6 6 11 16 8 14 18 23 20 19 18 18
33 36 38 40 42 32 32 7 7 6 5 5 11 8 24 28 23 11 8 9 4 3 6 5 4 7 14 8 4 3 4 9 9 14 1 14 12 5 13 13 14 17 18 17 18
33 35 38 39 41 13 26 5 7 6 12 12 20 17 28 14 9 25 1 7 6 8 5 3 8 9 5 5 7 5 7 11 11 15 6 11 11 7 12 20 20 21 18 17 12
33 35 39 39 30 12 18 4 18 15 4 9 5 4 7 6 8 21 8 5 5 6 9 16 10 7 5 7 6 5 6 15 9 17 4 5 8 6 2 7 15 16 21 15 21
32 34 38 42 7 27 13 21 24 6 4 8 6 5 3 3 6 10 15 11 6 9 9 12 8 11 8 10 7 9 12 12 11 5 9 4 7 7 7 4 10 21 18 18 19
32 34 36 37 19 8 11 25 22 3 4 3 7 2 8 4 8 5 8 5 14 9 6 8 9 7 11 17 8 14 7 9 11 8 1 5 2 7 2 9 7 12 19 19 21
34 35 39 19 13 15 17 23 3 5 5 7 5 10 13 4 5 6 5 2 5 8 4 7 4 5 12 16 9 7 3 3 4 3 3 8 7 5 4 8 7 10 20 21 20
36 36 36 15 5 10 17 5 5 3 5 7 6 11 8 6 9 6 8 2 6 5 5 3 7 6 7 6 3 4 5 7 5 3 8 7 3 8 7 9 13 11 17 21 22
39 36 25 14 10 4 5 5 2 3 5 5 6 10 4 8 12 10 10 8 4 5 3 6 12 7 6 9 10 7 9 6 5 7 10 5 6 7 9 9 11 16 17 21 21
36 25 9 5 5 4 5 4 6 5 4 8 9 4 5 8 2 8 6 3 5 2 4 5 5 8 5 8 8 5 5 9 4 1 2 5 8 8 6 10 8 9 13 22 22
26 14 10 1 8 4 5 3 3 3 6 2 3 3 4 10 9 8 6 4 8 13 2 3 2 2 5 2 3 7 5 2 1 3 4 5 5 6 8 9 8 4 6 14 16
8 4 11 7 3 5 3 5 5 7 4 3 7 5 7 4 4 4 5 7 7 10 7 5 3 6 1 4 8 3 2 4 3 4 5 2 7 6 8 6 10 8 5 12 17
5 2 5 3 3 1 1 4 5 8 7 8 4 4 4 4 4 2 4 4 9 6 5 3 2 2 9 8 6 7 6 6 5 7 3 4 7 5 6 10 8 7 7 7 7
2 3 4 1 0 3 6 5 4 4 6 5 3 1 2 3 5 3 6 7 7 6 2 4 3 3 9 7 5 3 6 7 5 5 7 4 7 3 11 13 6 7 8 9 10
2 3 4 4 1 3 4 5 5 7 6 5 3 3 3 4 2 5 8 6 16 7 4 6 2 5 5 8 6 5 7 5 5 4 4 4 6 13 16 12 17 18 12 12 14
2 1 2 3 3 3 2 3 6 6 4 4 5 4 1 4 7 5 4 8 13 6 7 3 2 4 7 10 5 1 12 5 5 5 5 3 3 13 10 9 10 13 16 13 6
2 2 4 2 3 4 3 3 3 7 4 6 3 9 2 2 5 6 3 4 6 8 7 3 4 2 3 7 5 3 15 9 7 8 11 8 8 10 6 13 16 12 13 16 13
2 2 3 3 4 2 1 4 5 8 6 4 5 4 5 3 6 13 13 10 9 2 4 2 2 4 5 14 4 3 5 9 4 5 3 3 3 4 13 17 17 17 16 13 7
Wind_Direction
9 6 3 358 355 352 348 345 342 341 338 334 334 334 333 329 324 308 248 254 223 205 170 156 182 211 188 229 218 171 332 284 265 255 289 301 143 186 145 138 182 192 143 145 151
5 2 357 354 351 349 346 341 340 337 333 332 331 332 332 330 324 281 291 261 205 195 169 172 181 175 216 205 199 147 175 229 234 261 332 275 205 155 118 156 5 94 89 126 144
1 357 353 350 348 345 342 338 336 333 331 330 328 328 331 330 325 252 9 5 192 205 198 207 266 196 207 176 211 189 223 287 283 262 165 274 224 183 125 229 209 152 146 149 155
360 356 352 348 344 341 338 335 332 330 328 328 325 325 330 329 292 290 332 351 222 196 211 183 203 210 239 228 229 316 234 240 275 298 140 209 149 179 181 210 172 157 156 153 165
358 355 352 348 342 338 334 331 328 326 325 324 324 327 341 339 251 285 288 289 231 210 212 171 184 188 225 246 261 226 292 285 278 302 322 281 176 193 221 136 149 154 156 164 171
358 354 351 348 343 338 332 328 325 322 321 318 317 317 24 279 253 294 322 268 231 230 241 182 203 202 238 240 174 224 274 290 301 299 357 2 317 164 173 145 153 174 170 173 176
356 352 349 347 344 339 331 324 323 322 314 307 303 260 167 241 285 286 284 286 260 243 231 246 226 226 70 305 238 249 314 321 294 311 342 332 322 209 163 160 162 181 182 180 185
352 350 347 345 343 340 332 325 327 318 314 304 252 168 239 268 273 272 279 270 254 253 243 273 223 244 190 262 355 358 75 317 277 350 324 75 281 296 162 166 173 184 187 185 192
348 347 344 344 344 338 332 333 336 21 27 81 124 167 267 301 263 293 317 247 245 238 245 261 229 218 324 91 0 2 249 263 317 134 249 85 293 303 181 180 170 189 192 194 189
344 343 341 341 343 338 341 338 352 41 20 27 30 358 282 290 327 314 315 275 232 235 278 197 132 161 19 93 237 210 247 246 253 283 342 304 286 300 184 182 183 190 194 197 194
342 341 339 339 341 340 355 6 11 351 31 268 255 252 276 284 297 280 294 317 222 141 184 220 166 197 225 196 227 212 255 266 270 274 344 283 276 255 184 195 194 197 200 198 206
340 339 338 338 341 344 356 76 88 303 296 238 243 249 256 268 304 284 119 187 155 193 192 250 224 225 260 204 230 216 260 272 290 265 156 281 268 271 189 203 198 201 205 196 177
338 340 339 338 339 343 349 67 338 356 263 310 241 225 256 169 231 261 177 213 206 208 205 221 221 215 196 250 239 238 210 267 242 298 220 269 294 318 250 205 210 210 211 194 184
337 339 339 339 349 335 318 334 334 344 25 284 344 313 328 233 262 237 206 190 202 207 218 231 246 220 223 244 159 262 227 251 272 319 278 112 276 300 296 267 222 207 202 203 191
334 336 334 338 306 302 305 326 333 109 349 286 325 207 301 237 274 297 240 138 218 198 127 237 215 190 222 231 165 244 251 230 256 255 235 265 171 260 331 301 240 208 204 202 195
331 330 330 329 297 297 322 327 4 46 260 325 7 336 351 310 288 294 316 79 199 188 201 223 234 215 230 245 179 245 297 55 56 95 233 241 175 237 233 223 275 193 203 201 194
329 327 322 299 254 307 325 2 39 130 338 346 335 333 331 308 314 315 325 230 170 143 230 220 238 245 209 269 131 153 63 293 320 330 230 241 173 240 228 245 229 228 202 202 193
327 328 325 297 267 303 345 51 109 274 276 306 345 320 315 5 319 323 350 6 323 50 99 199 262 186 207 185 197 186 153 163 264 278 283 292 238 260 236 256 271 267 211 192 188
332 333 336 10 130 143 72 71 205 220 300 354 328 342 316 325 267 353 335 326 349 323 192 161 259 269 259 246 156 216 159 200 171 358 86 250 288 315 297 315 331 313 176 189 185
332 330 318 8 136 73 70 238 249 239 322 340 260 256 276 315 328 7 335 331 339 338 119 245 300 250 301 359 245 173 175 222 44 242 272 281 280 246 304 302 321 341 183 176 176
346 6 338 160 141 46 119 237 274 254 282 260 263 255 259 252 253 302 300 297 355 316 337 25 88 289 356 189 248 323 160 131 125 147 193 271 272 239 270 300 278 247 203 180 173
0 18 113 175 35 16 162 210 273 291 308 251 225 220 251 276 282 262 260 249 324 322 336 330 136 301 250 272 241 175 226 159 125 272 244 186 261 294 313 293 258 143 142 122 130
27 270 12 171 284 326 302 291 254 310 299 309 289 331 324 309 338 288 338 284 328 338 301 312 357 6 345 355 13 346 276 208 153 128 224 182 276 46 8 334 333 141 151 138 138
48 8 326 44 33 95 348 284 317 302 263 317 291 332 341 360 351 301 328 312 321 313 328 103 118 153 195 237 275 300 281 146 131 123 175 212 298 6 353 352 353 348 355 45 60
49 302 196 317 332 352 268 280 327 342 318 2 340 360 332 346 339 323 279 316 322 341 347 76 258 164 230 265 265 34 285 174 113 161 118 355 71 4 352 357 354 8 14 8 51
79 35 350 284 307 336 349 355 310 335 267 306 325 308 103 131 184 272 283 226 248 314 341 347 283 276 311 293 3 43 355 16 78 99 100 108 67 21 39 44 30 23 17 33 14
357 28 109 283 332 7 184 334 298 339 288 307 321 323 316 245 238 254 236 241 235 259 281 190 97 23 305 333 345 333 26 335 65 34 108 114 154 73 66 56 46 28 23 24 41
Height
816 813 810 807 803 800 796 793 790 786 783 779 774 771 766 761 757 753 750 742 742 743 747 751 755 756 759 759 756 754 785 793 777 769 754 729 736 725 721 734 733 734 735 735 749
815 812 808 804 802 798 795 791 788 784 781 777 774 770 765 760 753 747 739 739 741 743 745 747 751 753 759 756 755 766 789 776 751 745 745 732 732 728 736 738 742 738 739 743 750
815 810 807 803 799 795 792 789 785 782 778 775 771 768 764 760 756 741 737 737 738 741 744 745 746 748 756 749 750 755 771 750 742 733 733 734 731 725 738 748 736 736 743 746 752
816 812 807 802 797 793 788 785 782 779 776 773 769 766 763 760 776 738 737 737 738 739 742 743 745 752 757 756 743 759 745 742 737 726 731 735 722 731 727 727 720 722 728 741 749
816 812 807 802 797 792 786 782 778 775 773 770 767 765 762 763 752 739 738 737 737 737 738 741 747 750 758 750 746 751 741 734 731 727 719 718 728 725 724 718 723 731 734 738 743
816 812 807 801 796 790 784 779 774 770 767 766 765 764 764 772 739 737 736 737 737 737 736 738 739 738 745 747 749 739 738 735 727 725 723 726 719 723 722 717 724 733 732 735 737
816 811 806 800 794 788 781 775 770 765 762 760 760 761 762 745 737 736 734 736 736 735 736 733 735 737 738 746 732 735 746 738 729 726 731 719 730 727 714 716 724 731 728 730 734
815 810 804 798 792 784 778 770 764 758 755 753 754 758 757 731 733 730 730 731 733 733 733 732 733 736 739 732 740 747 751 765 733 731 726 729 760 712 713 720 724 727 727 728 731
813 808 802 796 789 781 773 766 760 756 754 753 755 756 753 730 728 728 729 728 727 727 728 731 733 741 739 755 770 769 779 768 753 727 731 735 750 716 710 715 720 725 725 725 729
813 807 801 794 788 780 772 763 759 757 756 755 757 762 737 732 729 726 728 726 726 725 730 734 741 753 764 772 793 780 772 768 762 738 736 744 740 723 712 716 716 723 722 723 723
812 807 800 793 787 779 772 764 768 767 760 764 758 756 743 726 730 722 724 726 723 728 748 736 755 766 755 757 752 757 764 770 750 731 743 741 741 726 715 718 724 722 721 720 720
813 806 799 792 786 780 776 777 785 789 775 749 742 742 735 733 739 717 722 731 730 746 738 745 757 742 737 744 750 757 766 765 747 729 747 742 740 719 715 711 710 713 716 714 721
811 805 797 790 783 781 779 780 780 779 782 747 738 738 731 729 735 720 719 720 729 740 742 745 737 729 737 745 753 756 767 757 761 734 733 738 745 728 712 707 706 707 704 706 710
809 804 798 790 786 783 778 777 774 773 797 768 744 735 728 726 733 707 703 714 725 736 737 739 726 734 738 743 749 771 737 744 749 758 770 736 783 741 720 720 711 701 705 704 707
807 803 798 795 791 786 779 774 771 772 815 752 745 730 730 734 725 709 694 706 724 728 734 741 730 736 739 733 734 744 727 740 742 753 757 748 775 748 722 721 712 705 698 698 698
804 800 795 792 787 780 777 772 771 801 812 768 750 752 748 734 728 710 704 697 700 719 722 727 711 718 721 711 721 717 727 741 756 771 788 758 762 748 734 717 700 697 691 689 694
800 793 790 785 781 777 776 774 806 816 775 778 771 760 760 750 737 726 721 720 730 745 745 728 726 712 709 725 719 725 755 779 792 792 784 748 757 734 710 698 691 687 685 682 681
793 786 781 777 777 777 777 791 808 792 787 767 769 764 762 752 741 733 733 739 719 725 745 753 752 720 706 718 731 737 756 789 792 791 768 749 756 725 690 678 677 670 667 668 677
789 781 777 777 776 779 786 812 805 795 778 780 775 777 772 754 753 747 741 738 726 716 743 754 745 704 701 701 710 726 748 730 754 767 778 762 731 699 682 678 674 666 662 662 666
792 786 780 780 780 781 799 807 798 783 777 775 788 775 780 767 766 760 749 729 730 714 712 720 741 710 700 691 694 711 706 739 756 775 780 765 742 735 699 689 678 670 665 662 666
795 793 783 782 784 791 809 809 791 776 774 778 778 780 772 770 759 760 751 734 724 720 711 718 736 730 708 714 718 717 722 721 734 762 778 780 759 708 695 690 686 677 669 666 666
801 800 787 787 799 812 806 795 780 773 765 770 767 768 769 761 759 755 754 741 722 721 728 719 742 748 729 701 693 699 708 720 747 762 771 762 753 692 696 690 681 675 673 673 678
811 808 786 786 808 810 800 790 780 776 770 766 765 759 757 763 769 755 749 729 723 722 727 722 748 764 745 723 701 708 704 698 719 735 746 760 733 697 701 699 685 677 673 672 678
812 808 798 795 802 799 802 796 787 770 768 764 764 761 764 766 761 764 757 735 724 721 715 723 750 749 763 743 727 727 709 700 706 744 738 738 730 721 719 718 713 705 693 688 699
815 813 812 813 806 807 803 796 792 789 769 766 768 768 766 772 773 769 757 748 726 721 720 727 743 746 739 730 714 715 711 700 714 716 729 737 743 732 733 727 721 718 710 711 700
816 817 814 814 810 806 803 798 794 788 782 773 771 764 762 767 768 772 761 760 750 729 733 733 743 735 731 720 716 718 716 708 716 717 724 731 736 731 730 724 722 720 716 720 718
814 814 816 813 811 807 805 801 794 791 776 767 766 767 765 757 754 749 745 743 740 739 739 736 740 751 750 726 730 735 730 733 725 723 726 737 739 732 735 729 731 728 725 726 728